This is the latest recevied weather packets stored in our database for station/object Rana. If no packets are shown the sender has not sent any weather packets the latest 1 day(s).
| Time | Temp. | Humidity | Pressure | Rain* | Wind** | Luminosity | Snow |
|---|---|---|---|---|---|---|---|
| 1777983909 | 22.22° C | 41% | - | - | 3.13 m/s, 33° | - | - |
| 1777983613 | 22.22° C | 40% | - | - | 3.13 m/s, 37° | - | - |
| 1777983310 | 22.22° C | 40% | - | - | 0.89 m/s, 55° | - | - |
| 1777983015 | 22.22° C | 40% | - | - | 1.79 m/s, 52° | - | - |
| 1777982710 | 22.78° C | 40% | - | - | 1.79 m/s, 358° | - | - |
| 1777982410 | 22.22° C | 40% | - | - | 1.79 m/s, 144° | - | - |
| 1777982110 | 22.22° C | 40% | - | - | 1.79 m/s, 118° | - | - |
| 1777981810 | 22.22° C | 41% | - | - | 1.79 m/s, 91° | - | - |
| 1777981510 | 22.78° C | 40% | - | - | 1.79 m/s, 80° | - | - |
| 1777981214 | 22.22° C | 43% | - | - | 0.89 m/s, 5° | - | - |
| 1777980911 | 22.22° C | 43% | - | - | 1.79 m/s, 58° | - | - |
| 1777980611 | 21.11° C | 43% | - | - | 1.79 m/s, 38° | - | - |
| 1777980311 | 21.11° C | 43% | - | - | 1.79 m/s, 48° | - | - |
| 1777980012 | 22.22° C | 43% | - | - | 1.79 m/s, 19° | - | - |
| 1777979711 | 22.22° C | 44% | - | - | 0.89 m/s, 66° | - | - |
| 1777979411 | 22.22° C | 43% | - | - | 3.13 m/s, 39° | - | - |
| 1777979111 | 22.22° C | 43% | - | - | 3.13 m/s, 132° | - | - |
| 1777978810 | 21.11° C | 43% | - | - | 1.79 m/s, 38° | - | - |
| 1777978510 | 22.78° C | 42% | - | - | 3.13 m/s, 97° | - | - |
| 1777978211 | 22.22° C | 43% | - | - | 0.89 m/s, 97° | - | - |
| 1777977911 | 21.11° C | 42% | - | - | 4.02 m/s, 103° | - | - |
| 1777977610 | 22.22° C | 44% | - | - | 1.79 m/s, 46° | - | - |
| 1777977311 | 21.11° C | 46% | - | - | 0.89 m/s, 37° | - | - |
| 1777977010 | 21.11° C | 46% | - | - | 3.13 m/s, 44° | - | - |
| 1777976710 | 20° C | 46% | - | - | 1.79 m/s, 7° | - | - |
* Rain since midnight (hover to see other rain measurements)
** Current wind speed in m/s (hover to see current wind gust speed)